#datint,netname,site,siteID,timestamp,IntT,BattV,AirT2,AirT,AirT_Avg,AirT_Max,AirT_Min,RH_Avg,RH_Max,RH_Min,EA_Avg,Td_Avg,Td_Max,Td_Min,WindS_Smp,WindS_Avg,WindD_Avg,WindD_SD,WindS_Max,ETo,ETr,SoilT4,SoilT8,SoilVWC8,SolarW_Avg,wetstate_Avg,wetT_Avg,Precip_accum,Precip_WPG,Precip_TB
15min,AgWx,beryljct,423,08DEC2018:00:00:00,28.5,12.91,28.1,27.8,27.6,28.1,27.4,91,92,91,0.472,25.4,25.9,25.1,0,0.1,191,4.6,0.7,-0.00021,-0.00033,33.1,35.0,21,0,0,35.5,8.81,0.00,0.00
15min,AgWx,beryljct,423,08DEC2018:00:15:00,28.3,12.9,27.1,26.2,26.8,27.9,26.1,92,93,91,0.445,24.7,25.8,24.1,0,1.9,37,27,5.0,-0.00013,-0.00017,33.1,35.0,21,0,0,35.4,8.81,0.00,0.00
15min,AgWx,beryljct,423,08DEC2018:00:30:00,28.1,12.89,26.2,25.5,25.7,26.5,25.2,93,94,92,0.434,23.9,24.9,23.1,1.82,2.2,327,3.4,3.5,-0.00012,-0.00015,33.1,35.0,21,0,0,35.6,8.81,0.00,0.00
15min,AgWx,beryljct,423,08DEC2018:00:45:00,27.7,12.89,26.3,25.8,25.7,26.1,25.3,93,94,93,0.444,24.0,24.6,23.5,0.702,0.6,327,0.0,1.6,-0.00017,-0.00025,33.1,35.0,21,0,0,35.8,8.81,0.00,0.00
15min,AgWx,beryljct,423,08DEC2018:01:00:00,27.2,12.88,27.5,26.4,26.9,27.7,25.9,94,95,94,0.455,25.4,26.3,24.3,0,0.3,327,0.0,0.7,-0.00020,-0.00030,33.1,35.0,21,0,0,35.4,8.81,0.00,0.00
15min,AgWx,beryljct,423,08DEC2018:01:15:00,26.7,12.87,26.7,25.5,26.3,26.9,25.4,94,95,93,0.441,24.8,25.6,23.7,1.293,0.4,327,0.2,1.4,-0.00019,-0.00028,33.1,35.0,21,0,0,35.4,8.81,0.00,0.00
15min,AgWx,beryljct,423,08DEC2018:01:30:00,26.3,12.86,25.8,24.5,25.4,26.4,24.5,94,95,94,0.420,24.0,25.1,22.9,1.271,0.5,327,0.4,1.5,-0.00018,-0.00026,33.1,35.0,21,0,0,35.6,8.82,0.00,0.00
15min,AgWx,beryljct,423,08DEC2018:01:45:00,25.9,12.71,25.4,25.2,24.8,25.7,23.9,94,95,94,0.435,23.4,24.4,22.4,2.674,1.1,327,0.2,2.7,-0.00015,-0.00021,33.1,35.0,21,0,0,35.4,8.81,0.00,0.00
15min,AgWx,beryljct,423,08DEC2018:02:00:00,25.9,12.83,25.1,23.2,24.8,25.7,22.8,94,95,93,0.399,23.3,24.4,20.9,2.587,3.8,317,3.1,4.7,-0.00009,-0.00010,33.1,35.0,21,0,0,35.5,8.81,0.00,0.00
15min,AgWx,beryljct,423,08DEC2018:02:15:00,25.8,12.84,25.3,25.2,24.6,25.5,23.2,95,95,94,0.436,23.2,24.3,21.7,6.072,4.5,319,3.5,6.1,-0.00008,-0.00009,33.1,35.0,21,0,0,35.5,8.81,0.00,0.00
15min,AgWx,beryljct,423,08DEC2018:02:30:00,26.2,12.82,26.7,26.5,26.0,26.7,25.2,95,95,94,0.458,24.6,25.3,23.8,4.932,5.0,299,8.6,6.1,-0.00007,-0.00008,33.1,35.0,21,0,0,35.8,8.81,0.00,0.00
15min,AgWx,beryljct,423,08DEC2018:02:45:00,26.6,12.82,27.6,27.3,26.9,27.3,26.5,94,94,93,0.469,25.3,25.6,25.0,2.74,3.0,280,19,4.8,-0.00011,-0.00013,33.1,35.0,21,0,0,35.7,8.81,0.00,0.00
15min,AgWx,beryljct,423,08DEC2018:03:00:00,27.0,12.83,28.4,27.7,27.8,28.6,27.1,91,93,89,0.456,25.6,26.4,24.9,0.373,2.3,288,10,3.6,-0.00012,-0.00015,33.1,35.0,21,0,0,35.6,8.81,0.00,0.00
15min,AgWx,beryljct,423,08DEC2018:03:15:00,26.8,12.81,26.9,26.0,26.7,27.8,26.0,90,92,89,0.434,24.2,24.9,23.7,2.105,0.2,259,19,2.1,-0.00020,-0.00032,33.1,35.0,21,0,0,35.4,8.81,0.00,0.00
15min,AgWx,beryljct,423,08DEC2018:03:30:00,26.5,12.67,26.3,25.9,25.9,26.1,25.6,92,93,91,0.442,23.9,24.2,23.4,3.288,3.5,181,12,5.1,-0.00009,-0.00010,33.1,35.0,21,0,0,35.5,8.81,0.00,0.00
15min,AgWx,beryljct,423,08DEC2018:03:45:00,26.4,12.79,25.8,25.2,25.4,26.2,24.7,93,94,92,0.431,23.7,24.6,22.9,3.968,3.7,164,9.4,4.3,-0.00009,-0.00010,33.1,35.0,21,0,0,35.6,8.81,0.00,0.00
15min,AgWx,beryljct,423,08DEC2018:04:00:00,26.3,12.8,25.6,24.9,25.1,25.4,24.9,94,94,93,0.427,23.5,23.8,23.3,3.179,4.0,175,6.5,5.0,-0.00008,-0.00009,33.1,35.0,21,0,0,35.7,8.81,0.00,0.00
15min,AgWx,beryljct,423,08DEC2018:04:15:00,25.9,12.79,25.7,26.2,25.0,26.3,24.7,94,95,94,0.458,23.5,25.0,23.1,2.806,2.4,180,3.7,3.2,-0.00011,-0.00014,33.1,35.0,21,0,0,35.7,8.81,0.00,0.00
15min,AgWx,beryljct,423,08DEC2018:04:30:00,25.9,12.78,25.8,24.6,25.4,26.6,24.1,94,95,92,0.423,23.8,25.3,22.4,2.543,2.9,149,17,3.8,-0.00010,-0.00013,33.1,35.0,21,0,0,35.5,8.82,0.00,0.00
15min,AgWx,beryljct,423,08DEC2018:04:45:00,25.5,12.77,24.6,23.7,24.2,24.7,23.1,93,94,92,0.405,22.6,23.2,21.2,1.381,1.9,171,0.1,2.7,-0.00012,-0.00016,33.1,35.0,21,0,0,35.6,8.82,0.00,0.00
15min,AgWx,beryljct,423,08DEC2018:05:00:00,24.9,12.76,23.5,22.5,23.1,23.8,22.5,93,94,92,0.383,21.4,22.3,20.6,0.526,1.0,169,0.8,1.6,-0.00015,-0.00020,33.1,35.0,21,0,0,35.7,8.82,0.00,0.00
15min,AgWx,beryljct,423,08DEC2018:05:15:00,24.4,12.76,24.9,24.9,24.1,24.9,22.5,94,94,93,0.429,22.5,23.4,20.7,0,0.3,178,12,1.2,-0.00019,-0.00028,33.1,35.0,21,0,0,35.6,8.82,0.00,0.00
15min,AgWx,beryljct,423,08DEC2018:05:30:00,24.2,12.6,22.0,20.0,22.0,24.9,20.0,93,94,92,0.343,20.1,23.4,18.1,3.836,3.0,319,9.5,4.0,-0.00009,-0.00011,33.1,35.0,21,0,0,35.4,8.82,0.00,0.00
15min,AgWx,beryljct,423,08DEC2018:05:45:00,23.6,12.59,21.2,21.1,20.5,21.1,20.0,93,94,92,0.365,18.8,19.6,18.1,3.595,3.3,319,8.5,3.9,-0.00008,-0.00009,33.1,35.0,21,0,0,35.5,8.82,0.00,0.00
15min,AgWx,beryljct,423,08DEC2018:06:00:00,23.3,12.73,22.6,23.2,21.8,23.2,21.1,94,94,93,0.400,20.2,21.8,19.6,1.929,3.1,329,13,4.4,-0.00009,-0.00011,33.1,35.0,22,0,0,35.6,8.82,0.00,0.00
15min,AgWx,beryljct,423,08DEC2018:06:15:00,23.4,12.72,23.4,21.8,22.9,24.0,21.8,94,94,93,0.372,21.3,22.5,20.0,2.609,3.1,28,10,4.2,-0.00009,-0.00011,33.1,35.0,21,0,0,35.5,8.82,0.00,0.00
15min,AgWx,beryljct,423,08DEC2018:06:30:00,23.2,12.71,21.5,20.6,21.1,21.9,20.6,93,93,92,0.353,19.3,20.1,18.8,1.359,1.0,44,0.2,2.6,-0.00014,-0.00019,33.1,35.0,21,0,0,35.7,8.82,0.00,0.00
15min,AgWx,beryljct,423,08DEC2018:06:45:00,22.6,12.71,20.7,20.3,20.2,20.5,19.9,93,93,92,0.347,18.3,18.7,18.0,1.71,1.6,44,0.1,2.4,-0.00012,-0.00015,33.1,35.0,21,0,0,35.6,8.82,0.00,0.00
15min,AgWx,beryljct,423,08DEC2018:07:00:00,22.1,12.7,20.6,19.8,20.1,20.4,19.8,92,92,92,0.338,18.2,18.5,17.7,0.636,1.0,44,0.0,2.0,0.00001,0.00002,33.1,35.0,21,0,0,35.8,8.82,0.00,0.00
15min,AgWx,beryljct,423,08DEC2018:07:15:00,21.7,12.68,20.2,19.3,19.7,20.1,19.3,92,92,92,0.331,17.8,18.3,17.3,1.951,1.9,148,39,3.1,0.00002,0.00004,33.1,35.0,21,0,0,35.5,8.82,0.00,0.00
15min,AgWx,beryljct,423,08DEC2018:07:30:00,21.3,12.68,19.9,19.3,19.4,19.7,19.2,93,94,92,0.335,17.7,18.2,17.3,2.872,1.7,171,21,3.2,0.00002,0.00003,33.1,35.0,22,1,0,35.2,8.82,0.00,0.00
15min,AgWx,beryljct,423,08DEC2018:07:45:00,21.3,12.69,21.0,20.6,20.4,21.0,19.4,94,94,93,0.356,18.8,19.4,17.7,0.636,2.3,209,2.0,3.4,0.00004,0.00005,33.1,35.0,22,5,0,35.8,8.82,0.00,0.00
15min,AgWx,beryljct,423,08DEC2018:08:00:00,21.2,12.8,20.1,19.4,19.7,20.6,19.3,93,93,92,0.335,18.0,19.0,17.5,0,0.1,197,6.1,0.7,0.00009,0.00010,33.1,35.0,21,25,0,35.8,8.82,0.00,0.00
15min,AgWx,beryljct,423,08DEC2018:08:15:00,21.5,13.08,20.7,20.6,20.0,20.6,19.4,93,93,92,0.353,18.2,18.8,17.6,1.096,0.8,159,0.0,1.5,0.00019,0.00020,33.1,35.0,21,61,0,35.6,8.82,0.00,0.00
15min,AgWx,beryljct,423,08DEC2018:08:30:00,22.5,13.45,22.0,21.8,21.3,21.8,20.6,93,93,93,0.372,19.6,20.1,18.8,3.113,2.2,157,4.7,3.3,0.00026,0.00029,33.1,35.0,21,99,0,35.7,8.81,0.00,0.00
15min,AgWx,beryljct,423,08DEC2018:08:45:00,23.9,13.87,23.3,23.7,22.5,23.7,21.8,93,93,93,0.404,20.8,22.0,20.0,5.897,4.1,147,3.2,5.9,0.00034,0.00038,33.1,35.0,22,137,0,35.6,8.81,0.00,0.00
15min,AgWx,beryljct,423,08DEC2018:09:00:00,25.3,14.88,24.6,24.3,24.0,24.3,23.7,94,94,93,0.418,22.4,22.8,22.0,3.42,4.4,150,4.9,5.6,0.00044,0.00049,33.1,35.0,22,176,0,35.9,8.81,0.00,0.00
15min,AgWx,beryljct,423,08DEC2018:09:15:00,26.8,14.85,25.4,24.8,24.9,25.3,24.4,94,95,94,0.429,23.5,23.9,22.9,3.266,3.5,146,4.3,4.6,0.00056,0.00061,33.1,35.0,22,216,0,36.9,8.81,0.00,0.00
15min,AgWx,beryljct,423,08DEC2018:09:30:00,28.4,14.84,26.8,27.3,26.2,27.3,25.0,95,96,95,0.481,25.0,26.2,23.6,1.491,2.0,149,6.6,3.6,0.00072,0.00077,33.1,35.0,22,254,0,40.7,8.81,0.00,0.00
15min,AgWx,beryljct,423,08DEC2018:09:45:00,30.6,14.82,28.9,29.3,28.3,29.3,27.2,95,96,95,0.520,27.1,28.0,26.1,0,0.2,138,0.8,1.3,0.00094,0.00101,33.1,35.0,22,291,0,46.5,8.81,0.00,0.00
15min,AgWx,beryljct,423,08DEC2018:10:00:00,33.2,14.78,30.7,30.9,30.1,30.9,29.2,94,95,92,0.538,28.5,29.1,28.0,1.732,1.2,52,15,2.9,0.00106,0.00114,33.1,35.0,22,326,0,46.5,8.81,0.00,0.00
15min,AgWx,beryljct,423,08DEC2018:10:15:00,35.6,14.77,32.2,32.0,31.7,32.3,31.0,90,92,88,0.534,29.0,29.5,28.6,0.658,1.9,45,11,3.2,0.00119,0.00128,33.1,35.0,22,358,0,47.2,8.81,0.00,0.00
15min,AgWx,beryljct,423,08DEC2018:10:30:00,37.3,14.68,32.9,32.9,32.5,33.0,32.1,87,88,86,0.542,29.1,29.4,28.8,0.702,1.9,37,13,3.2,0.00132,0.00143,33.1,35.0,22,389,0,48.6,8.81,0.00,0.00
15min,AgWx,beryljct,423,08DEC2018:10:45:00,38.7,14.64,33.8,33.7,33.4,33.8,32.9,85,86,85,0.560,29.5,29.9,29.0,0.658,0.8,65,19,2.7,0.00150,0.00161,33.1,35.0,22,418,0,52.8,8.81,0.00,0.00
15min,AgWx,beryljct,423,08DEC2018:11:00:00,39.9,14.61,34.4,34.6,34.0,34.6,33.6,85,86,84,0.566,29.9,30.4,29.5,0.614,1.5,63,14,2.8,0.00157,0.00170,33.1,35.0,22,443,0,52.8,8.81,0.00,0.00
15min,AgWx,beryljct,423,08DEC2018:11:15:00,41.0,14.61,35.8,35.9,35.3,36.0,34.6,82,84,81,0.576,30.5,31.1,30.0,3.223,2.4,48,16,4.3,0.00165,0.00180,33.1,35.0,22,461,0,52.1,8.81,0.00,0.00
15min,AgWx,beryljct,423,08DEC2018:11:30:00,41.8,14.71,36.5,36.3,36.2,36.5,35.8,80,82,79,0.575,30.6,31.2,30.1,2.039,2.7,41,21,5.2,0.00173,0.00190,33.1,35.0,22,478,0,50.6,8.81,0.00,0.00
15min,AgWx,beryljct,423,08DEC2018:11:45:00,42.3,14.27,37.2,37.0,36.8,37.6,36.3,79,80,77,0.579,31.0,31.9,30.5,0.57,2.1,84,23,3.6,0.00183,0.00200,33.1,35.0,22,493,0,53.1,8.81,0.00,0.00
15min,AgWx,beryljct,423,08DEC2018:12:00:00,42.9,14.17,38.3,38.1,37.9,38.6,37.0,78,80,76,0.604,31.7,32.9,30.7,2.938,1.9,85,18,4.7,0.00192,0.00210,33.1,35.0,22,505,0,55.4,8.81,0.00,0.00
15min,AgWx,beryljct,423,08DEC2018:12:15:00,43.4,14.14,38.9,39.0,38.5,39.3,37.9,77,79,75,0.606,31.8,32.7,31.2,2.653,2.2,64,24,4.0,0.00195,0.00215,33.1,35.0,22,510,0,53.6,8.81,0.00,0.00
15min,AgWx,beryljct,423,08DEC2018:12:30:00,43.9,14.24,39.9,39.9,39.5,40.0,38.9,74,76,72,0.613,32.0,32.7,31.4,1.907,3.0,25,20,6.3,0.00198,0.00220,33.1,35.0,22,511,0,52.1,8.81,0.00,0.00
15min,AgWx,beryljct,423,08DEC2018:12:45:00,44.6,14.11,41.1,41.0,40.7,41.3,39.9,72,75,70,0.615,32.4,33.2,31.8,3.047,2.8,20,27,5.1,0.00204,0.00227,33.1,35.0,22,511,0,52.5,8.81,0.00,0.00
15min,AgWx,beryljct,423,08DEC2018:13:00:00,45.4,14.09,41.8,43.2,41.3,43.2,40.7,70,71,65,0.616,32.1,32.8,31.7,0.066,1.4,22,13,4.0,0.00209,0.00228,33.1,35.0,21,506,0,54.1,8.81,0.00,0.00
15min,AgWx,beryljct,423,08DEC2018:13:15:00,46.4,14.15,42.8,42.6,42.6,43.7,42.0,67,70,64,0.618,32.6,33.6,32.1,0.066,1.0,96,31,3.3,0.00212,0.00231,33.1,35.0,21,502,0,57.3,8.80,0.00,0.00
15min,AgWx,beryljct,423,08DEC2018:13:30:00,47.3,14.03,43.2,43.4,42.9,43.7,42.5,67,68,66,0.627,32.6,33.4,32.2,0.965,0.9,75,20,2.5,0.00207,0.00225,33.1,35.0,21,489,0,57.0,8.80,0.00,0.00
15min,AgWx,beryljct,423,08DEC2018:13:45:00,48.2,13.98,43.8,43.8,43.6,43.8,43.2,65,67,64,0.629,32.8,33.5,32.4,1.556,1.1,37,63,2.9,0.00201,0.00220,33.1,35.0,21,473,0,56.3,8.81,0.00,0.00
15min,AgWx,beryljct,423,08DEC2018:14:00:00,49.0,13.98,44.6,44.8,44.3,44.8,43.8,65,66,64,0.649,33.2,34.0,32.6,0.614,1.8,29,27,4.2,0.00185,0.00207,33.1,35.0,21,439,0,54.3,8.80,0.00,0.00
15min,AgWx,beryljct,423,08DEC2018:14:15:00,49.7,13.94,45.6,45.5,45.4,45.7,44.9,64,66,63,0.659,33.8,35.0,33.2,2.938,2.7,109,29,4.9,0.00187,0.00213,33.2,35.0,21,434,0,54.8,8.80,0.00,0.00
15min,AgWx,beryljct,423,08DEC2018:14:30:00,50.0,13.96,46.2,46.2,45.9,46.4,45.3,63,65,61,0.646,33.9,34.8,33.2,1.732,2.8,100,19,5.2,0.00172,0.00199,33.3,35.0,21,401,0,54.5,8.80,0.00,0.00
15min,AgWx,beryljct,423,08DEC2018:14:45:00,50.4,13.96,47.2,46.8,46.8,47.2,46.2,62,64,60,0.656,34.4,35.6,33.4,3.091,3.2,127,22,5.2,0.00165,0.00194,33.4,35.0,21,379,0,55.4,8.80,0.00,0.00
15min,AgWx,beryljct,423,08DEC2018:15:00:00,50.8,13.94,47.4,47.4,47.1,47.5,46.7,60,63,59,0.673,34.1,35.0,33.3,3.223,3.2,115,12,5.9,0.00152,0.00181,33.6,35.0,21,349,0,55.2,8.80,0.00,0.00
15min,AgWx,beryljct,423,08DEC2018:15:15:00,51.1,13.91,47.9,48.5,47.6,48.5,47.4,59,60,57,0.665,33.9,34.6,33.5,0.767,2.1,71,17,4.0,0.00131,0.00153,33.9,35.0,22,313,0,55.7,8.80,0.00,0.00
15min,AgWx,beryljct,423,08DEC2018:15:30:00,51.9,13.97,48.7,48.7,48.5,49.0,48.3,58,60,56,0.676,34.3,35.2,33.7,1.863,1.2,90,17,2.5,0.00109,0.00124,34.1,35.1,21,278,0,58.7,8.79,0.00,0.00
15min,AgWx,beryljct,423,08DEC2018:15:45:00,52.6,13.94,49.0,48.9,48.8,49.0,48.7,57,58,56,0.662,34.3,34.9,33.6,1.841,2.1,75,20,3.8,0.00094,0.00115,34.5,35.1,21,240,0,57.8,8.79,0.00,0.00
15min,AgWx,beryljct,423,08DEC2018:16:00:00,53.0,13.85,49.1,48.9,49.0,49.1,48.9,56,59,55,0.658,34.2,35.3,33.4,0.504,1.5,57,9.2,3.4,0.00069,0.00085,34.8,35.1,22,201,0,57.3,8.79,0.00,0.00
15min,AgWx,beryljct,423,08DEC2018:16:15:00,53.5,13.93,49.4,49.2,49.2,49.3,48.9,55,56,54,0.645,33.6,34.2,33.2,0,0.1,51,0.0,0.5,0.00035,0.00038,35.1,35.1,21,164,0,58.2,8.80,0.00,0.00
15min,AgWx,beryljct,423,08DEC2018:16:30:00,53.6,13.87,49.3,48.5,49.1,50.9,48.3,56,61,52,0.638,34.1,35.5,33.1,1.403,0.6,52,0.1,1.6,0.00013,0.00020,35.3,35.2,21,129,0,58.4,8.79,0.00,0.00
15min,AgWx,beryljct,423,08DEC2018:16:45:00,53.1,13.94,48.0,46.6,48.0,48.5,46.6,57,61,55,0.665,33.5,34.3,33.0,3.113,2.2,46,5.2,3.3,0.00015,0.00022,35.5,35.2,22,93,0,54.5,8.79,0.00,0.00
15min,AgWx,beryljct,423,08DEC2018:17:00:00,51.5,13.34,46.0,45.6,45.9,47.3,44.6,61,63,59,0.642,33.3,34.0,32.2,1.776,1.9,292,68,4.3,-0.00003,-0.00002,35.7,35.3,22,34,0,48.6,8.80,0.00,0.00
15min,AgWx,beryljct,423,08DEC2018:17:15:00,48.1,13.24,42.3,38.4,42.8,46.0,38.4,65,72,59,0.566,32.0,33.4,29.8,2.061,3.5,273,17,5.0,0.00000,0.00002,35.8,35.3,22,9,0,41.5,8.80,0.00,0.00
15min,AgWx,beryljct,423,08DEC2018:17:30:00,44.6,13.2,41.8,39.4,41.3,44.9,38.4,68,76,56,0.589,31.4,33.3,30.2,6.072,4.8,268,14,7.2,0.00003,0.00006,35.9,35.4,22,3,0,39.6,8.80,0.00,0.00
15min,AgWx,beryljct,423,08DEC2018:17:45:00,42.2,13.18,39.3,38.1,39.2,40.8,38.1,74,76,71,0.556,31.5,32.7,29.7,5.174,5.4,265,42,7.6,0.00001,0.00003,36.0,35.4,22,0,0,37.8,8.80,0.00,0.00
15min,AgWx,beryljct,423,08DEC2018:18:00:00,40.2,13.16,39.2,40.7,38.4,41.2,35.9,76,81,71,0.631,31.3,33.8,28.9,4.757,5.4,22,12,6.8,0.00000,0.00002,36.0,35.5,22,0,0,36.9,8.80,0.00,0.00
15min,AgWx,beryljct,423,08DEC2018:18:15:00,39.6,13.15,41.2,40.2,40.9,42.8,39.7,72,74,67,0.619,32.4,33.7,31.2,4.976,4.8,16,9.0,7.4,0.00001,0.00003,36.0,35.5,22,0,0,39.0,8.80,0.00,0.00
15min,AgWx,beryljct,423,08DEC2018:18:30:00,38.7,13.14,38.1,37.3,38.1,41.9,36.2,75,80,67,0.596,30.9,33.0,29.1,3.354,3.8,326,23,5.9,-0.00004,-0.00003,36.0,35.6,22,0,0,36.7,8.80,0.00,0.00
15min,AgWx,beryljct,423,08DEC2018:18:45:00,37.7,13.13,38.1,37.9,37.6,38.3,36.6,77,80,75,0.583,31.1,31.8,30.0,2.959,2.8,312,15,3.5,-0.00009,-0.00010,36.0,35.7,22,0,0,35.8,8.80,0.00,0.00
15min,AgWx,beryljct,423,08DEC2018:19:00:00,36.8,13.12,37.8,37.0,37.5,37.9,37.0,76,78,74,0.577,30.6,31.3,29.7,3.157,2.8,341,14,4.0,-0.00008,-0.00009,35.9,35.7,21,0,0,35.3,8.80,0.00,0.00
15min,AgWx,beryljct,423,08DEC2018:19:15:00,36.2,13.11,36.7,35.4,36.4,37.1,35.4,78,79,76,0.551,30.1,31.1,29.4,3.508,3.4,357,26,5.6,-0.00007,-0.00007,35.8,35.8,21,0,0,35.3,8.80,0.00,0.00
15min,AgWx,beryljct,423,08DEC2018:19:30:00,35.5,13.07,34.6,33.9,34.3,35.3,33.7,81,83,79,0.549,29.2,29.7,28.8,2.609,2.9,28,8.3,4.1,-0.00009,-0.00011,35.8,35.8,21,0,0,35.3,8.81,0.00,0.00
15min,AgWx,beryljct,423,08DEC2018:19:45:00,34.7,13.07,34.1,32.7,33.8,34.1,32.7,83,84,82,0.521,29.2,29.7,28.1,0.723,1.7,18,18,3.7,-0.00014,-0.00019,35.7,35.8,21,0,0,35.4,8.80,0.00,0.00
15min,AgWx,beryljct,423,08DEC2018:20:00:00,33.9,13.07,33.4,32.7,32.8,33.2,32.5,85,86,83,0.530,28.8,29.3,28.0,2.346,1.2,335,14,2.3,-0.00017,-0.00023,35.6,35.9,21,0,0,35.5,8.80,0.00,0.00
15min,AgWx,beryljct,423,08DEC2018:20:15:00,33.2,13.06,33.7,33.6,33.1,33.6,32.5,85,86,84,0.547,29.0,29.7,28.5,1.951,1.4,300,26,3.2,-0.00016,-0.00021,35.5,35.9,21,0,0,35.7,8.81,0.00,0.00
15min,AgWx,beryljct,423,08DEC2018:20:30:00,32.9,13.06,34.4,33.9,33.9,34.1,33.5,84,84,83,0.551,29.5,29.7,29.1,2.017,1.5,21,21,3.6,-0.00015,-0.00020,35.4,35.9,21,0,0,35.8,8.81,0.00,0.00
15min,AgWx,beryljct,423,08DEC2018:20:45:00,32.7,13.05,34.1,33.6,33.7,34.0,33.5,84,84,83,0.545,29.3,29.5,29.0,2.455,2.6,25,12,4.4,-0.00011,-0.00013,35.4,35.9,21,0,0,35.2,8.81,0.00,0.00
15min,AgWx,beryljct,423,08DEC2018:21:00:00,32.5,13.04,33.6,33.1,33.2,33.6,32.8,84,85,83,0.540,28.9,29.3,28.5,0,1.2,357,8.1,3.0,-0.00017,-0.00023,35.3,35.9,21,0,0,35.5,8.81,0.00,0.00
15min,AgWx,beryljct,423,08DEC2018:21:15:00,32.1,13.02,33.3,32.4,32.8,33.3,32.2,84,86,83,0.527,28.7,29.2,27.8,0,0.7,337,7.6,2.2,-0.00020,-0.00028,35.2,36.0,21,0,0,35.3,8.81,0.00,0.00
15min,AgWx,beryljct,423,08DEC2018:21:30:00,31.9,13.02,32.9,32.4,32.4,32.8,32.2,85,86,85,0.533,28.5,29.1,28.3,7.212,3.3,46,15,7.2,-0.00009,-0.00010,35.2,36.0,21,0,0,35.7,8.81,0.00,0.00
15min,AgWx,beryljct,423,08DEC2018:21:45:00,32.0,13.03,33.1,32.5,32.6,32.8,32.5,85,86,85,0.532,28.7,28.9,28.5,6.182,5.8,64,7.8,7.7,-0.00004,-0.00003,35.1,36.0,21,0,0,35.6,8.81,0.00,0.00
15min,AgWx,beryljct,423,08DEC2018:22:00:00,32.3,13.02,33.4,32.8,32.9,33.1,32.6,85,86,85,0.533,28.9,29.1,28.6,3.464,6.6,63,16,9.9,-0.00002,-0.00002,35.1,36.0,21,0,0,35.4,8.81,0.00,0.00
15min,AgWx,beryljct,423,08DEC2018:22:15:00,32.1,13.01,32.1,32.5,31.6,32.8,30.6,86,88,84,0.531,28.0,28.9,26.8,3.179,3.4,327,36,4.8,-0.00009,-0.00010,35.0,36.0,21,0,0,35.4,8.81,0.00,0.00
15min,AgWx,beryljct,423,08DEC2018:22:30:00,31.9,12.99,32.4,31.2,32.0,32.5,31.1,85,86,85,0.507,28.0,28.6,27.1,2.587,2.3,1.1,19,3.7,-0.00012,-0.00014,35.0,36.0,21,0,0,35.5,8.81,0.00,0.00
15min,AgWx,beryljct,423,08DEC2018:22:45:00,31.3,12.98,31.2,30.7,30.8,31.3,30.4,87,88,85,0.499,27.4,28.2,26.5,1.535,2.3,315,17,3.5,-0.00012,-0.00015,34.9,36.0,21,0,0,35.8,8.81,0.00,0.00
15min,AgWx,beryljct,423,08DEC2018:23:00:00,30.8,12.98,31.3,30.9,30.8,31.2,30.4,87,88,86,0.516,27.5,27.9,26.8,0.745,1.0,336,4.6,2.0,-0.00017,-0.00024,34.9,36.0,21,0,0,35.5,8.81,0.00,0.00
15min,AgWx,beryljct,423,08DEC2018:23:15:00,30.3,12.98,30.8,30.1,30.4,31.1,29.6,88,89,86,0.497,27.2,28.1,25.8,1.425,1.7,329,1.9,2.9,-0.00014,-0.00018,34.8,36.0,21,0,0,35.6,8.81,0.00,0.00
15min,AgWx,beryljct,423,08DEC2018:23:30:00,29.8,12.98,29.5,29.5,29.1,30.0,28.1,89,91,87,0.499,26.2,27.1,24.8,2.126,2.0,321,6.0,2.9,-0.00013,-0.00016,34.8,36.0,21,0,0,35.4,8.81,0.00,0.00
15min,AgWx,bigpiney,439,08DEC2018:00:00:00,10.2,12.6,9.1,8.8,8.6,9.0,7.9,87,87,85,0.196,5.4,6.0,4.4,3.727,2.2,297,23,3.9,-0.00007,-0.00008,31.6,33.7,46,0,0,0.0,.,0.00,0.00
15min,AgWx,bigpiney,439,08DEC2018:00:15:00,10.2,12.59,9.1,8.6,8.6,9.1,8.4,85,87,84,0.193,5.2,5.8,4.7,3.924,2.6,252,24,3.9,-0.00006,-0.00007,31.6,33.6,46,0,0,0.0,.,0.00,0.00
15min,AgWx,bigpiney,439,08DEC2018:00:30:00,10.4,12.56,9.6,9.5,9.0,9.5,8.6,86,86,85,0.201,5.6,6.1,5.2,0.592,2.0,227,16,5.1,-0.00007,-0.00008,31.6,33.7,46,0,0,0.0,.,0.00,0.00
15min,AgWx,bigpiney,439,08DEC2018:00:45:00,10.7,12.56,11.1,11.7,10.4,11.7,9.5,86,87,86,0.223,7.1,8.4,6.1,2.433,2.6,225,8.8,4.0,-0.00006,-0.00007,31.6,33.7,46,0,0,0.0,.,0.00,0.00
15min,AgWx,bigpiney,439,08DEC2018:01:00:00,11.3,12.56,12.1,11.2,11.7,11.9,11.2,85,86,85,0.216,8.1,8.5,7.5,2.543,2.1,220,15,3.1,-0.00007,-0.00009,31.6,33.6,46,0,0,0.0,.,0.00,0.00
15min,AgWx,bigpiney,439,08DEC2018:01:15:00,11.7,12.55,10.9,9.8,10.6,11.2,9.6,85,86,84,0.203,7.0,7.8,5.9,2.938,3.1,219,17,4.5,-0.00005,-0.00006,31.6,33.7,46,0,0,0.0,.,0.00,0.00
15min,AgWx,bigpiney,439,08DEC2018:01:30:00,11.7,12.53,9.8,9.7,9.4,9.9,8.8,86,88,85,0.204,6.0,6.9,5.2,2.631,3.1,207,17,5.2,-0.00005,-0.00006,31.6,33.6,46,0,0,0.0,.,0.00,0.00
15min,AgWx,bigpiney,439,08DEC2018:01:45:00,11.4,12.52,9.5,9.1,9.0,9.8,7.7,86,88,83,0.202,5.6,6.6,3.5,2.324,3.1,226,11,4.7,-0.00005,-0.00006,31.6,33.6,46,0,0,0.0,.,0.00,0.00
15min,AgWx,bigpiney,439,08DEC2018:02:00:00,10.9,12.52,7.5,6.6,7.3,9.2,6.4,86,88,82,0.180,3.9,6.2,2.7,4.077,3.1,286,28,4.9,-0.00005,-0.00005,31.6,33.6,46,0,0,0.0,.,0.00,0.00
15min,AgWx,bigpiney,439,08DEC2018:02:15:00,10.6,12.51,8.0,7.7,7.4,7.8,6.7,88,88,87,0.188,4.5,4.9,3.8,0,1.1,271,13,4.1,-0.00009,-0.00011,31.6,33.7,46,0,0,0.0,.,0.00,0.00
15min,AgWx,bigpiney,439,08DEC2018:02:30:00,10.5,12.49,9.8,9.6,9.1,10.2,7.6,87,89,86,0.203,6.1,7.2,4.5,2.105,1.2,281,29,2.8,-0.00009,-0.00012,31.6,33.6,46,0,0,0.0,.,0.00,0.00
15min,AgWx,bigpiney,439,08DEC2018:02:45:00,10.8,12.5,11.5,11.8,10.7,11.8,9.6,87,87,86,0.224,7.5,8.5,6.3,1.293,1.9,215,21,3.0,-0.00008,-0.00010,31.6,33.8,46,0,0,0.0,.,0.00,0.00
15min,AgWx,bigpiney,439,08DEC2018:03:00:00,11.4,12.48,12.8,12.2,12.2,12.6,11.8,86,86,85,0.228,8.7,9.0,8.4,1.995,1.2,256,28,2.2,-0.00010,-0.00013,31.6,33.6,46,0,0,0.0,.,0.00,0.00
15min,AgWx,bigpiney,439,08DEC2018:03:15:00,11.7,12.49,11.9,11.4,11.5,12.6,10.6,85,87,84,0.223,8.0,9.1,6.8,2.236,1.3,221,59,3.7,-0.00009,-0.00012,31.6,33.7,46,0,0,0.0,.,0.00,0.00
15min,AgWx,bigpiney,439,08DEC2018:03:30:00,11.6,12.48,10.3,7.9,10.2,12.1,7.9,86,88,83,0.185,6.7,9.0,4.1,4.056,2.9,235,26,6.2,-0.00005,-0.00006,31.6,33.7,46,0,0,0.0,.,0.00,0.00
15min,AgWx,bigpiney,439,08DEC2018:03:45:00,11.2,12.48,9.1,7.4,8.6,9.5,7.3,86,87,84,0.181,5.2,6.3,3.6,5.393,4.0,219,5.4,6.6,-0.00004,-0.00004,31.6,33.7,46,0,0,0.0,.,0.00,0.00
15min,AgWx,bigpiney,439,08DEC2018:04:00:00,10.7,12.48,7.7,6.9,7.2,7.9,6.8,86,88,85,0.177,4.0,5.0,3.3,3.595,5.3,236,13,6.8,-0.00002,-0.00002,31.6,33.6,46,0,0,0.0,.,0.00,0.00
15min,AgWx,bigpiney,439,08DEC2018:04:15:00,10.1,12.46,7.8,7.3,7.3,7.9,6.6,86,88,85,0.183,4.1,4.9,2.9,3.398,3.6,283,12,5.3,-0.00004,-0.00004,31.6,33.7,46,0,0,0.0,.,0.00,0.00
15min,AgWx,bigpiney,439,08DEC2018:04:30:00,9.7,12.44,9.9,8.4,9.3,11.6,7.0,88,91,83,0.185,6.4,8.9,3.7,1.863,3.7,318,13,4.9,-0.00005,-0.00005,31.6,33.6,46,0,0,0.0,.,0.00,0.00
15min,AgWx,bigpiney,439,08DEC2018:04:45:00,9.4,12.46,7.6,7.5,7.3,8.3,6.4,86,88,82,0.188,4.0,5.3,2.6,2.236,1.8,135,81,4.5,-0.00007,-0.00009,31.6,33.6,46,0,0,0.0,.,0.00,0.00
15min,AgWx,bigpiney,439,08DEC2018:05:00:00,8.9,12.44,6.3,5.0,6.1,8.1,4.9,86,88,84,0.162,2.7,5.3,1.3,4.538,4.2,208,12,6.6,-0.00003,-0.00003,31.6,33.7,46,0,0,0.0,.,0.00,0.00
15min,AgWx,bigpiney,439,08DEC2018:05:15:00,8.4,12.45,5.1,3.9,4.8,5.7,3.8,85,87,85,0.155,1.3,2.5,0.2,4.297,4.2,218,8.4,5.5,-0.00003,-0.00003,31.6,33.7,46,0,0,0.0,.,0.00,0.00
15min,AgWx,bigpiney,439,08DEC2018:05:30:00,7.9,12.44,5.1,3.6,4.7,5.7,3.6,86,88,83,0.149,1.3,2.8,-0.4,1.622,2.9,254,38,4.7,-0.00004,-0.00005,31.6,33.6,46,0,0,0.0,.,0.00,0.00
15min,AgWx,bigpiney,439,08DEC2018:05:45:00,7.4,12.44,4.3,4.3,3.8,4.6,3.0,86,88,84,0.159,0.4,1.8,-0.6,0,1.0,242,30,2.3,-0.00008,-0.00010,31.6,33.7,46,0,0,0.0,.,0.00,0.00
15min,AgWx,bigpiney,439,08DEC2018:06:00:00,6.8,12.43,3.3,1.9,3.0,4.8,1.6,85,87,83,0.143,-0.4,1.7,-1.9,2.126,1.3,256,22,2.7,-0.00007,-0.00009,31.6,33.6,46,0,0,0.0,.,0.00,0.00
15min,AgWx,bigpiney,439,08DEC2018:06:15:00,6.1,12.43,4.7,6.5,3.7,6.5,1.1,88,90,84,0.181,0.9,3.8,-2.7,2.214,2.4,322,45,4.2,-0.00005,-0.00006,31.5,33.6,46,0,0,0.0,.,0.00,0.00
15min,AgWx,bigpiney,439,08DEC2018:06:30:00,5.8,12.44,5.4,4.4,5.1,6.6,3.7,87,88,85,0.164,2.0,3.8,0.5,0.329,1.9,2.1,51,4.7,-0.00006,-0.00008,31.6,33.6,46,0,0,0.0,.,0.00,0.00
15min,AgWx,bigpiney,439,08DEC2018:06:45:00,5.6,12.42,4.7,6.0,3.9,6.0,2.9,87,90,84,0.181,1.0,3.8,-0.7,0.548,1.7,204,14,4.3,-0.00006,-0.00008,31.6,33.6,46,0,0,0.0,.,0.00,0.00
15min,AgWx,bigpiney,439,08DEC2018:07:00:00,5.2,12.43,5.0,3.5,4.6,6.4,2.8,86,90,83,0.153,1.3,4.1,-1.3,2.762,2.6,179,8.1,4.6,-0.00005,-0.00006,31.6,33.6,46,0,0,0.0,.,0.00,0.00
15min,AgWx,bigpiney,439,08DEC2018:07:15:00,5.1,12.42,4.1,3.1,3.6,4.9,2.6,85,89,83,0.148,0.2,2.2,-1.4,3.31,3.3,229,22,5.3,-0.00004,-0.00004,31.6,33.6,46,0,0,0.0,.,0.00,0.00
15min,AgWx,bigpiney,439,08DEC2018:07:30:00,4.9,12.44,3.1,3.1,2.5,3.1,1.9,85,87,84,0.153,-1.0,0.2,-1.9,2.981,2.2,287,48,5.4,-0.00005,-0.00006,31.5,33.6,46,1,0,0.0,.,0.00,0.00
15min,AgWx,bigpiney,439,08DEC2018:07:45:00,4.8,14.35,6.5,8.7,5.4,8.7,3.5,88,90,84,0.202,2.7,6.2,-0.2,0.723,2.2,13,72,4.8,-0.00005,-0.00006,31.5,33.6,46,10,0,0.0,.,0.00,0.00
15min,AgWx,bigpiney,439,08DEC2018:08:00:00,5.1,15.06,7.0,4.7,6.9,8.7,4.7,85,89,83,0.158,3.4,6.1,0.8,1.666,1.7,272,84,6.1,-0.00010,-0.00009,31.5,33.6,46,39,0,0.0,.,0.00,0.00
15min,AgWx,bigpiney,439,08DEC2018:08:15:00,5.9,14.99,6.0,4.8,5.5,6.7,4.8,86,88,84,0.159,2.2,3.8,1.1,3.091,2.0,248,21,4.9,-0.00002,-0.00001,31.5,33.6,46,71,0,0.0,.,0.00,0.00
15min,AgWx,bigpiney,439,08DEC2018:08:30:00,7.0,15.04,6.1,6.6,5.5,6.6,4.7,86,87,84,0.177,2.2,3.4,0.9,1.798,0.9,272,37,3.1,0.00001,0.00002,31.5,33.6,46,93,0,0.0,.,0.00,0.00